This demonstration page uses our WeatherBlox Daily Observations layout. Learn more.

Left ArrowRight Arrow

47.50024, -111.30081

Hourly Observations for May 14, 2019

Temp ( °F °C ) Dew Point ( °F °C ) Humidity (%) Winds ( mph kmh ) Pressure ( in mb ) Visibility ( mi km ) Precip ( " mm )
12:53 am 00:53 Clear 53 11.7 44 6.7 72 72 VRB 3 6 29.81 1010 10 16 0.00 0.00
1:53 am 01:53 Clear 49 9.4 43 6.1 80 80 ESE 3 6 29.82 1010 10 16 0.00 0.00
2:53 am 02:53 Clear 47 8.3 42 5.6 83 83 WSW 6 9 29.82 1010 10 16 0.00 0.00
3:53 am 03:53 Clear 48 8.9 44 6.7 86 86 W 10 17 29.82 1010 10 16 0.00 0.00
4:53 am 04:53 Clear 45 7.2 43 6.1 93 93 W 6 9 29.83 1010 10 16 0.00 0.00
5:53 am 05:53 Sunny 44 6.7 41 5 89 89 SSW 9 15 29.85 1011 10 16 0.00 0.00
6:53 am 06:53 Partly Cloudy 46 7.8 43 6.1 89 89 W 5 7 29.85 1011 10 16 0.00 0.00
7:53 am 07:53 Mostly Sunny 53 11.7 47 8.3 80 80 SW 5 7 29.86 1011 10 16 0.00 0.00
8:53 am 08:53 Mostly Cloudy 57 13.9 48 8.9 72 72 W 3 6 29.86 1011 10 16 0.00 0.00
9:53 am 09:53 Mostly Sunny 61 16.1 48 8.9 63 63 N 7 11 29.87 1012 10 16 0.00 0.00
10:53 am 10:53 Sunny 65 18.3 46 7.8 51 51 NE 6 9 29.87 1011 10 16 0.00 0.00
11:53 am 11:53 Sunny 71 21.7 40 4.4 32 32 VRB 5 7 29.85 1011 10 16 0.00 0.00
12:53 pm 12:53 Sunny 72 22.2 35 1.7 26 26 VRB 3 6 29.83 1010 10 16 0.00 0.00
1:53 pm 13:53 Sunny 74 23.3 35 1.7 24 24 Calm 29.82 1010 10 16 0.00 0.00
2:53 pm 14:53 Sunny 78 25.6 37 2.8 23 23 VRB 5 7 29.78 1008 10 16 0.00 0.00
3:53 pm 15:53 Sunny 78 25.6 35 1.7 21 21 Calm 29.76 1008 10 16 0.00 0.00
4:53 pm 16:53 Mostly Sunny 77 25 38 3.3 24 24 SSW 3 6 29.75 1008 10 16 0.00 0.00
5:53 pm 17:53 Sunny 77 25 38 3.3 24 24 SSW 7 11 29.74 1007 10 16 0.00 0.00
6:53 pm 18:53 Mostly Sunny 75 23.9 40 4.4 28 28 SSW 6 9 29.72 1007 10 16 0.00 0.00
7:53 pm 19:53 Sunny 72 22.2 42 5.6 34 34 S 5 7 29.71 1006 10 16 0.00 0.00
8:53 pm 20:53 Cloudy 73 22.8 33 0.6 23 23 SSE 12 19 29.71 1006 10 16 0.00 0.00
9:53 pm 21:53 Mostly Clear 68 20 38 3.3 33 33 SSE 9 15 29.72 1007 10 16 0.00 0.03
10:53 pm 22:53 Mostly Clear 64 17.8 40 4.4 41 41 S 9 15 29.72 1006 10 16 0.00 0.00
11:53 pm 23:53 Cloudy 67 19.4 39 3.9 36 36 SW 8 13 29.70 1006 10 16 0.00 0.00

Powered by AerisWeather